Robstown, TX

5:25 AM CDT on May 24, 2017 (GMT -0500)
Robstown

Weather History for KRBO - December, 2013

Change the Weather History Date:

Saturday, December 28, 2013

  Actual Average (KCRP) Record (KCRP)
Temperature  
Mean Temperature 55 °F -  
Max Temperature 63 °F 65 °F 84 °F (1970)
Min Temperature 47 °F 44 °F 24 °F (1925)
Degree Days  
Heating Degree Days 10    
Growing Degree Days 5 (Base 50)    
Moisture  
Dew Point 44 °F    
Average Humidity 74    
Maximum Humidity 96    
Minimum Humidity 40    
Precipitation  
Precipitation 0.00 in - - ()
Sea Level Pressure  
Sea Level Pressure 30.18 in    
Wind  
Wind Speed 4 mph (NNE)    
Max Wind Speed 7 mph    
Max Gust Speed -    
Visibility 8 miles    
Events      
Averages and records for this station are not official NWS values.
T = Trace of Precipitation, MM = Missing Value Source: NWS Daily Summary

Daily Weather History Graph

Daily Weather History Graph

Search for Another Location

Airport or City:

Trip Planner

Search our weather history database for the weather conditions in past years. The results will help you decide how hot, cold, wet, or windy it might be!

Date:

Astronomy

Dec. 28, 2013 Rise Set
Actual Time 7:20 AM CST 5:44 PM CST
Civil Twilight 6:54 AM CST 6:10 PM CST
Nautical Twilight 6:25 AM CST 6:39 PM CST
Astronomical Twilight 5:57 AM CST 7:08 PM CST
Moon 3:10 AM CST (12/28) 2:26 PM CST (12/28)
Length of Visible Light 11h 15m
Length of Day
10h 24m
Waning Crescent, 19% of the Moon is Illuminated
Dec 28
Waning Crescent
Jan 1
New
Jan 7
First Quarter
Jan 15
Full
Jan 23
Last Quarter

Hourly Weather History & Observations

Time (CST) Temp. Dew Point Humidity Pressure Visibility Wind Dir Wind Speed Gust Speed Precip Events Conditions
12:15 AM 50.9 °F 49.6 °F 95% 30.31 in 3.0 mi North 5.8 mph - N/A   Clear
12:35 AM 50.9 °F 49.6 °F 95% 30.31 in 4.0 mi North 4.6 mph - N/A   Clear
12:55 AM 51.1 °F 50.0 °F 96% 30.31 in 4.0 mi NNW 4.6 mph - N/A   Scattered Clouds
1:15 AM 51.1 °F 50.0 °F 96% 30.31 in 4.0 mi North 3.5 mph - N/A   Mostly Cloudy
1:35 AM 51.1 °F 49.8 °F 95% 30.29 in 3.0 mi North 5.8 mph - N/A   Scattered Clouds
1:55 AM 51.1 °F 49.6 °F 95% 30.29 in 4.0 mi North 3.5 mph - N/A   Scattered Clouds
2:15 AM 50.9 °F 49.5 °F 95% 30.28 in 4.0 mi North 5.8 mph - N/A   Scattered Clouds
2:35 AM 50.9 °F 49.5 °F 95% 30.28 in 4.0 mi North 4.6 mph - N/A   Clear
2:55 AM 50.9 °F 49.3 °F 94% 30.27 in 4.0 mi North 4.6 mph - N/A   Clear
3:15 AM 50.9 °F 49.1 °F 94% 30.27 in 5.0 mi North 4.6 mph - N/A   Clear
3:35 AM 51.1 °F 48.9 °F 92% 30.27 in 5.0 mi North 4.6 mph - N/A   Clear
3:55 AM 50.9 °F 48.6 °F 92% 30.26 in 5.0 mi North 4.6 mph - N/A   Scattered Clouds
4:15 AM 50.9 °F 48.7 °F 92% 30.26 in 5.0 mi North 4.6 mph - N/A   Mostly Cloudy
4:35 AM 50.5 °F 48.2 °F 92% 30.25 in 5.0 mi North 4.6 mph - N/A   Mostly Cloudy
4:55 AM 50.4 °F 47.7 °F 90% 30.24 in 7.0 mi North 4.6 mph - N/A   Scattered Clouds
5:15 AM 50.0 °F 47.3 °F 90% 30.24 in 7.0 mi North 4.6 mph - N/A   Scattered Clouds
5:35 AM 50.2 °F 47.3 °F 90% 30.25 in 7.0 mi NNW 3.5 mph - N/A   Mostly Cloudy
5:55 AM 50.0 °F 47.3 °F 90% 30.25 in 7.0 mi Calm Calm - N/A   Mostly Cloudy
6:15 AM 50.0 °F 46.9 °F 89% 30.25 in 7.0 mi Calm Calm - N/A   Mostly Cloudy
6:35 AM 50.0 °F 47.3 °F 90% 30.25 in 7.0 mi Calm Calm - N/A   Mostly Cloudy
6:55 AM 50.0 °F 47.3 °F 90% 30.26 in 7.0 mi Calm Calm - N/A   Mostly Cloudy
7:15 AM 50.2 °F 47.3 °F 90% 30.26 in 7.0 mi Calm Calm - N/A   Light Drizzle
7:35 AM 50.0 °F 47.3 °F 90% 30.24 in 5.0 mi North 4.6 mph - N/A   Scattered Clouds
7:55 AM 49.3 °F 46.6 °F 90% 30.25 in 5.0 mi North 4.6 mph - N/A   Scattered Clouds
8:15 AM 49.1 °F 46.9 °F 92% 30.26 in 4.0 mi NNW 3.5 mph - N/A   Mostly Cloudy
8:35 AM 50.0 °F 47.3 °F 90% 30.26 in 5.0 mi NNW 5.8 mph - N/A   Mostly Cloudy
8:55 AM 50.4 °F 46.8 °F 87% 30.26 in 7.0 mi NNW 4.6 mph - N/A   Mostly Cloudy
9:15 AM 50.9 °F 46.2 °F 84% 30.27 in 7.0 mi NNW 4.6 mph - N/A   Overcast
9:35 AM 51.4 °F 45.7 °F 81% 30.27 in 10.0 mi North 4.6 mph - N/A   Mostly Cloudy
9:55 AM 51.4 °F 45.3 °F 80% 30.27 in 10.0 mi North 3.5 mph - N/A   Mostly Cloudy
10:15 AM 52.0 °F 44.4 °F 75% 30.27 in 10.0 mi North 5.8 mph - N/A   Mostly Cloudy
10:35 AM 52.9 °F 42.6 °F 68% 30.27 in 10.0 mi North 4.6 mph - N/A   Mostly Cloudy
10:55 AM 53.6 °F 41.7 °F 64% 30.25 in 10.0 mi NNE 3.5 mph - N/A   Scattered Clouds
11:15 AM 54.3 °F 39.9 °F 58% 30.25 in 10.0 mi North 4.6 mph - N/A   Mostly Cloudy
11:35 AM 55.4 °F 36.9 °F 50% 30.23 in 10.0 mi North 4.6 mph - N/A   Mostly Cloudy
11:55 AM 55.9 °F 37.8 °F 51% 30.23 in 10.0 mi Calm Calm - N/A   Overcast
12:15 PM 56.7 °F 37.0 °F 48% 30.20 in 10.0 mi North 5.8 mph - N/A   Overcast
12:35 PM 57.4 °F 39.0 °F 50% 30.19 in 10.0 mi NW 5.8 mph - N/A   Overcast
12:55 PM 58.3 °F 39.7 °F 50% 30.18 in 10.0 mi NNW 6.9 mph - N/A   Overcast
1:15 PM 58.6 °F 38.7 °F 47% 30.17 in 10.0 mi NNW 4.6 mph - N/A   Overcast
1:35 PM 59.4 °F 37.8 °F 45% 30.15 in 10.0 mi North 6.9 mph - N/A   Mostly Cloudy
1:55 PM 60.1 °F 37.6 °F 43% 30.13 in 10.0 mi North 4.6 mph - N/A   Mostly Cloudy
2:15 PM 60.1 °F 37.8 °F 44% 30.12 in 10.0 mi NNE 4.6 mph - N/A   Overcast
2:35 PM 60.8 °F 36.9 °F 41% 30.11 in 10.0 mi Calm Calm - N/A   Overcast
2:55 PM 61.9 °F 37.8 °F 41% 30.10 in 10.0 mi Calm Calm - N/A   Mostly Cloudy
3:15 PM 62.6 °F 38.5 °F 41% 30.09 in 10.0 mi NNE 5.8 mph - N/A   Scattered Clouds
3:35 PM 63.0 °F 38.8 °F 41% 30.08 in 10.0 mi North 5.8 mph - N/A   Clear
3:55 PM 61.9 °F 38.7 °F 42% 30.07 in 10.0 mi Calm Calm - N/A   Clear
4:15 PM 62.2 °F 38.3 °F 41% 30.07 in 10.0 mi NE 3.5 mph - N/A   Clear
4:35 PM 62.6 °F 37.9 °F 40% 30.06 in 10.0 mi ENE 3.5 mph - N/A   Clear
4:55 PM 62.6 °F 39.9 °F 43% 30.07 in 10.0 mi ESE 3.5 mph - N/A   Clear
5:15 PM 61.5 °F 40.8 °F 47% 30.08 in 10.0 mi East 3.5 mph - N/A   Scattered Clouds
5:35 PM 61.2 °F 43.2 °F 52% 30.07 in 10.0 mi Calm Calm - N/A   Overcast
5:55 PM 58.1 °F 44.8 °F 61% 30.07 in 10.0 mi SE 4.6 mph - N/A   Mostly Cloudy
6:15 PM 56.7 °F 43.5 °F 61% 30.07 in 10.0 mi SSE 4.6 mph - N/A   Clear
6:35 PM 55.4 °F 42.8 °F 63% 30.07 in 10.0 mi SSE 4.6 mph - N/A   Clear
6:55 PM 54.9 °F 43.7 °F 66% 30.08 in 10.0 mi South 5.8 mph - N/A   Clear
7:15 PM 53.6 °F 44.6 °F 72% 30.08 in 10.0 mi South 4.6 mph - N/A   Clear
7:35 PM 53.2 °F 44.2 °F 72% 30.08 in 10.0 mi SSE 5.8 mph - N/A   Clear
7:55 PM 52.0 °F 42.6 °F 70% 30.08 in 10.0 mi SE 6.9 mph - N/A   Clear
8:15 PM 50.9 °F 43.0 °F 74% 30.07 in 10.0 mi SE 6.9 mph - N/A   Clear
8:35 PM 50.4 °F 43.2 °F 76% 30.07 in 10.0 mi SE 5.8 mph - N/A   Clear
8:55 PM 50.2 °F 43.7 °F 78% 30.08 in 10.0 mi SSE 5.8 mph - N/A   Clear
9:15 PM 49.8 °F 43.9 °F 80% 30.07 in 10.0 mi SSE 4.6 mph - N/A   Clear
9:35 PM 49.5 °F 44.1 °F 82% 30.07 in 10.0 mi SSE 5.8 mph - N/A   Clear
9:55 PM 48.4 °F 43.9 °F 84% 30.07 in 10.0 mi SSE 6.9 mph - N/A   Clear
10:15 PM 47.5 °F 43.5 °F 86% 30.07 in 10.0 mi South 6.9 mph - N/A   Clear
10:35 PM 47.3 °F 43.2 °F 86% 30.07 in 10.0 mi South 5.8 mph - N/A   Clear
10:55 PM 47.3 °F 42.6 °F 84% 30.06 in 10.0 mi SSE 5.8 mph - N/A   Clear
11:15 PM 47.7 °F 41.9 °F 80% 30.06 in 10.0 mi SSE 6.9 mph - N/A   Clear
11:35 PM 47.3 °F 41.9 °F 82% 30.06 in 10.0 mi SSE 4.6 mph - N/A   Clear
11:55 PM 47.3 °F 41.9 °F 82% 30.06 in 10.0 mi Calm Calm - N/A   Clear